When you browse on this site, cookies collect data to enhance your experience and personalize the content and advertising you see.
Visit our Privacy Policy to learn more. By continuing to use the site, you agree to this use of cookies and data.
  • In Austria
  • List of Countries
  • For 7 days
  • Water Temperature
  • Weather Map
  • News
  • Weather Widgets
  • user-avatar
    Login

    Hourly Weather Kerns

    Today, 22 October, Tuesday

    Time Temperature Precipitation Wind Pressure Humidity
    00:00 +22°C° 0.3 mm 4 mps 761 mmHg 94%
    01:00 +22°C° 0.3 mm 4 mps 760 mmHg 94%
    02:00 +22°C° 0.8 mm 4 mps 760 mmHg 94%
    03:00 +22°C° 0.8 mm 4 mps 760 mmHg 94%
    04:00 +22°C° 0 mm 5 mps 760 mmHg 94%
    05:00 +23°C° 1.1 mm 5 mps 760 mmHg 91%
    06:00 +23°C° 1.1 mm 5 mps 761 mmHg 88%
    07:00 +24°C° 1.1 mm 6 mps 761 mmHg 85%
    08:00 +26°C° 0.9 mm 6 mps 761 mmHg 81%
    09:00 +26°C° 0.9 mm 6 mps 762 mmHg 77%
    10:00 +27°C° 0 mm 5 mps 762 mmHg 73%
    11:00 +28°C° 0.3 mm 6 mps 761 mmHg 68%
    12:00 +29°C° 0.3 mm 6 mps 761 mmHg 63%
    13:00 +30°C° 0.3 mm 6 mps 760 mmHg 58%
    14:00 +30°C° 0.1 mm 6 mps 760 mmHg 60%
    15:00 +29°C° 0.1 mm 6 mps 760 mmHg 61%
    16:00 +29°C° 0 mm 6 mps 760 mmHg 64%
    17:00 +27°C° 0.2 mm 6 mps 760 mmHg 72%
    18:00 +26°C° 0.2 mm 5 mps 761 mmHg 80%
    19:00 +23°C° 0.2 mm 5 mps 761 mmHg 88%
    20:00 +23°C° 0.5 mm 5 mps 761 mmHg 89%
    21:00 +23°C° 0.5 mm 6 mps 762 mmHg 91%
    22:00 +23°C° 0 mm 6 mps 762 mmHg 92%
    23:00 +22°C° 0.3 mm 6 mps 762 mmHg 92%

    Tomorrow, 23 October, Wednesday

    Time Temperature Precipitation Wind Pressure Humidity
    00:00 +22°C° 0.3 mm 6 mps 761 mmHg 91%
    01:00 +22°C° 0.3 mm 6 mps 761 mmHg 91%
    02:00 +21°C° 0.1 mm 6 mps 761 mmHg 92%
    03:00 +21°C° 0.1 mm 6 mps 761 mmHg 93%
    04:00 +21°C° 0.1 mm 5 mps 761 mmHg 94%
    05:00 +21°C° 0.1 mm 5 mps 761 mmHg 91%
    06:00 +22°C° 0.1 mm 6 mps 761 mmHg 88%
    07:00 +22°C° 0.1 mm 6 mps 762 mmHg 85%
    08:00 +24°C° 0 mm 6 mps 762 mmHg 74%
    09:00 +27°C° 0 mm 6 mps 762 mmHg 62%
    10:00 +29°C° 0 mm 6 mps 762 mmHg 51%
    11:00 +30°C° 0 mm 6 mps 761 mmHg 48%
    12:00 +30°C° 0 mm 6 mps 761 mmHg 46%
    13:00 +32°C° 0 mm 6 mps 760 mmHg 43%
    14:00 +30°C° 0 mm 6 mps 760 mmHg 47%
    15:00 +30°C° 0 mm 6 mps 760 mmHg 51%
    16:00 +29°C° 0 mm 6 mps 759 mmHg 55%
    17:00 +27°C° 0 mm 5 mps 760 mmHg 64%
    18:00 +25°C° 0 mm 5 mps 760 mmHg 74%
    19:00 +23°C° 0 mm 5 mps 761 mmHg 83%
    20:00 +22°C° 0.1 mm 5 mps 761 mmHg 86%
    21:00 +22°C° 0.1 mm 5 mps 762 mmHg 88%
    22:00 +22°C° 0.1 mm 5 mps 762 mmHg 91%
    23:00 +21°C° 0.1 mm 5 mps 761 mmHg 92%

    Day after tomorrow, 24 October, Thursday

    Time Temperature Precipitation Wind Pressure Humidity
    00:00 +21°C° 0.1 mm 5 mps 761 mmHg 92%
    01:00 +21°C° 0.1 mm 4 mps 760 mmHg 93%
    02:00 +21°C° 0.1 mm 4 mps 760 mmHg 94%
    03:00 +21°C° 0.1 mm 4 mps 760 mmHg 96%
    04:00 +21°C° 0.1 mm 4 mps 760 mmHg 97%
    05:00 +21°C° 0.1 mm 4 mps 760 mmHg 94%
    06:00 +22°C° 0.1 mm 4 mps 760 mmHg 91%
    07:00 +23°C° 0.1 mm 4 mps 761 mmHg 88%
    08:00 +26°C° 0.1 mm 5 mps 761 mmHg 78%
    09:00 +28°C° 0.1 mm 5 mps 761 mmHg 68%
    10:00 +30°C° 0.1 mm 5 mps 761 mmHg 57%
    11:00 +30°C° 0 mm 5 mps 761 mmHg 56%
    12:00 +32°C° 0 mm 5 mps 760 mmHg 55%
    13:00 +32°C° 0 mm 5 mps 760 mmHg 53%
    14:00 +30°C° 0.1 mm 5 mps 759 mmHg 57%
    15:00 +30°C° 0.1 mm 5 mps 759 mmHg 60%
    16:00 +29°C° 0.1 mm 5 mps 758 mmHg 63%
    17:00 +27°C° 0.1 mm 5 mps 759 mmHg 72%
    18:00 +26°C° 0.1 mm 5 mps 759 mmHg 81%
    19:00 +23°C° 0.1 mm 4 mps 760 mmHg 90%
    20:00 +23°C° 0.2 mm 4 mps 760 mmHg 91%
    21:00 +23°C° 0.2 mm 4 mps 760 mmHg 93%
    22:00 +23°C° 0.2 mm 4 mps 761 mmHg 94%
    23:00 +23°C° 0.2 mm 4 mps 760 mmHg 95%

    25 October, Friday

    Time Temperature Precipitation Wind Pressure Humidity
    00:00 +23°C° 0.2 mm 4 mps 760 mmHg 96%
    01:00 +22°C° 0.2 mm 4 mps 759 mmHg 97%
    02:00 +22°C° 0.2 mm 4 mps 759 mmHg 97%
    03:00 +22°C° 0.2 mm 3 mps 759 mmHg 97%
    04:00 +22°C° 0.2 mm 3 mps 759 mmHg 97%
    05:00 +24°C° 0.3 mm 3 mps 759 mmHg 95%
    06:00 +24°C° 0.3 mm 3 mps 760 mmHg 92%
    07:00 +25°C° 0.3 mm 3 mps 760 mmHg 90%
    08:00 +27°C° 0.2 mm 3 mps 760 mmHg 81%
    09:00 +29°C° 0.2 mm 4 mps 760 mmHg 72%
    10:00 +30°C° 0.2 mm 4 mps 760 mmHg 63%
    11:00 +32°C° 0.1 mm 4 mps 760 mmHg 62%
    12:00 +32°C° 0.1 mm 4 mps 759 mmHg 60%
    13:00 +32°C° 0.1 mm 4 mps 758 mmHg 58%
    14:00 +32°C° 0.2 mm 4 mps 758 mmHg 62%
    15:00 +30°C° 0.2 mm 4 mps 758 mmHg 66%
    16:00 +29°C° 0.2 mm 4 mps 757 mmHg 69%
    17:00 +28°C° 0.1 mm 4 mps 758 mmHg 77%
    18:00 +26°C° 0.1 mm 4 mps 758 mmHg 84%
    19:00 +25°C° 0.1 mm 4 mps 758 mmHg 92%
    20:00 +25°C° 0.2 mm 4 mps 759 mmHg 93%
    21:00 +25°C° 0.2 mm 3 mps 759 mmHg 94%
    22:00 +25°C° 0.2 mm 3 mps 759 mmHg 95%
    23:00 +24°C° 0.2 mm 3 mps 759 mmHg 96%

    26 October, Saturday

    Time Temperature Precipitation Wind Pressure Humidity
    00:00 +24°C° 0.2 mm 3 mps 759 mmHg 96%
    01:00 +24°C° 0.2 mm 3 mps 758 mmHg 97%
    02:00 +24°C° 0.3 mm 3 mps 758 mmHg 97%
    03:00 +24°C° 0.3 mm 3 mps 758 mmHg 97%
    04:00 +24°C° 0.3 mm 3 mps 758 mmHg 96%
    05:00 +24°C° 0.2 mm 3 mps 758 mmHg 94%
    06:00 +25°C° 0.2 mm 3 mps 759 mmHg 92%
    07:00 +25°C° 0.2 mm 3 mps 759 mmHg 90%
    08:00 +27°C° 0.1 mm 3 mps 759 mmHg 82%
    09:00 +28°C° 0.1 mm 3 mps 759 mmHg 75%
    10:00 +29°C° 0.1 mm 3 mps 759 mmHg 67%
    11:00 +30°C° 0 mm 3 mps 759 mmHg 65%
    12:00 +30°C° 0 mm 4 mps 758 mmHg 62%
    13:00 +32°C° 0 mm 4 mps 758 mmHg 60%
    14:00 +30°C° 0 mm 4 mps 757 mmHg 63%
    15:00 +30°C° 0 mm 4 mps 757 mmHg 65%
    16:00 +29°C° 0 mm 4 mps 756 mmHg 67%
    17:00 +27°C° 0 mm 4 mps 757 mmHg 74%
    18:00 +26°C° 0 mm 4 mps 757 mmHg 81%
    19:00 +23°C° 0 mm 4 mps 757 mmHg 88%
    20:00 +24°C° 0 mm 3 mps 758 mmHg 90%
    21:00 +24°C° 0 mm 3 mps 758 mmHg 91%
    22:00 +22°C° 0 mm 3 mps 759 mmHg 93%
    23:00 +22°C° 0 mm 3 mps 759 mmHg 94%

    27 October, Sunday

    Time Temperature Precipitation Wind Pressure Humidity
    00:00 +21°C° 0 mm 3 mps 758 mmHg 94%
    01:00 +21°C° 0 mm 3 mps 758 mmHg 95%
    02:00 +21°C° 0 mm 3 mps 758 mmHg 95%
    03:00 +20°C° 0 mm 2 mps 758 mmHg 95%
    04:00 +20°C° 0 mm 2 mps 758 mmHg 95%
    05:00 +21°C° 0 mm 2 mps 758 mmHg 89%
    06:00 +23°C° 0 mm 2 mps 759 mmHg 84%
    07:00 +24°C° 0 mm 2 mps 759 mmHg 78%
    08:00 +26°C° 0 mm 3 mps 759 mmHg 68%
    09:00 +29°C° 0 mm 3 mps 759 mmHg 58%
    10:00 +31°C° 0 mm 3 mps 758 mmHg 48%
    11:00 +33°C° 0 mm 4 mps 758 mmHg 45%
    12:00 +34°C° 0 mm 4 mps 758 mmHg 43%
    13:00 +34°C° 0 mm 4 mps 757 mmHg 41%
    14:00 +34°C° 0 mm 4 mps 757 mmHg 44%
    15:00 +33°C° 0 mm 4 mps 756 mmHg 47%
    16:00 +32°C° 0 mm 4 mps 756 mmHg 51%
    17:00 +29°C° 0 mm 4 mps 757 mmHg 62%
    18:00 +27°C° 0 mm 4 mps 757 mmHg 74%
    19:00 +25°C° 0 mm 4 mps 758 mmHg 85%
    20:00 +25°C° 0 mm 4 mps 758 mmHg 89%
    21:00 +23°C° 0 mm 4 mps 759 mmHg 92%
    22:00 +24°C° 0 mm 3 mps 759 mmHg 96%
    23:00 +24°C° 0 mm 3 mps 759 mmHg 97%

    28 October, Monday

    Time Temperature Precipitation Wind Pressure Humidity
    00:00 +22°C° 0 mm 3 mps 759 mmHg 97%
    01:00 +23°C° 0 mm 2 mps 758 mmHg 97%
    02:00 +22°C° 0 mm 3 mps 758 mmHg 97%
    03:00 +22°C° 0 mm 3 mps 758 mmHg 96%
    04:00 +22°C° 0 mm 3 mps 758 mmHg 96%
    05:00 +24°C° 0 mm 3 mps 758 mmHg 93%
    06:00 +24°C° 0 mm 3 mps 759 mmHg 90%
    07:00 +25°C° 0 mm 3 mps 759 mmHg 88%
    08:00 +27°C° 0.1 mm 4 mps 759 mmHg 78%
    09:00 +29°C° 0.1 mm 4 mps 759 mmHg 68%
    10:00 +32°C° 0.1 mm 4 mps 759 mmHg 59%
    11:00 +32°C° 0.1 mm 5 mps 759 mmHg 57%
    12:00 +33°C° 0.1 mm 5 mps 758 mmHg 55%
    13:00 +33°C° 0.1 mm 5 mps 758 mmHg 54%
    14:00 +33°C° 0 mm 5 mps 757 mmHg 56%
    15:00 +32°C° 0 mm 5 mps 757 mmHg 59%
    16:00 +30°C° 0 mm 5 mps 757 mmHg 62%
    17:00 +28°C° 0 mm 5 mps 757 mmHg 70%
    18:00 +27°C° 0 mm 5 mps 758 mmHg 78%
    19:00 +25°C° 0 mm 4 mps 758 mmHg 87%
    20:00 +23°C° 0 mm 4 mps 759 mmHg 89%
    21:00 +23°C° 0 mm 4 mps 759 mmHg 92%
    22:00 +22°C° 0 mm 4 mps 759 mmHg 94%
    23:00 +22°C° 0 mm 4 mps 759 mmHg 95%
    Show more